[[{"header":{"parameterUnit":"m.s-1","parameterCategory":1,"la1":30.2991,"la2":30.254,"lo1":-89.0895,"lo2":-89.0444,"dy":0.0017,"dx":0.0017,"nx":28,"ny":28,"refTime":"2024-10-04T09:00:00:Z","depth":0,"parameterNumber":2,"parameterNumberName":"U-component_of_WINDS"},"data":[0,0,0,0,0,0,0,0,0,0,0,0,0,0,0,0,0,0,0,0,0,0,0,0,0,0,0,0,0,0,0,0,0,0,0,0,0,0,0,0,0,0,0,0,0,0,0,0,0,0,0,0,0,0,0,0,0,0,-4.267,-4.2671,0,-4.2747,-4.2748,-4.2749,-4.2638,-4.2634,-4.263,-4.2626,-4.2705,-4.2711,-4.2716,0,0,0,0,0,0,0,0,0,0,0,0,0,-4.2427,-4.2432,-4.267,-4.2671,-4.2672,-4.2747,-4.2748,-4.2749,-4.2638,-4.2634,-4.2629,-4.2624,-4.2703,-4.271,-4.2717,0,0,0,0,0,0,0,0,0,0,0,0,0,-4.2521,-4.2434,-4.267,-4.2626,-4.2623,-4.2747,-4.2748,-4.2749,-4.2639,-4.2633,-4.2627,-4.2622,-4.2701,-4.2709,-4.2718,-4.2889,0,0,-4.2744,-4.2748,0,0,0,0,0,0,0,0,-4.2516,-4.253,-4.2631,-4.2629,-4.2626,-4.2677,-4.2691,-4.2796,-4.2641,-4.2633,-4.2626,-4.2619,-4.27,-4.2709,-4.2736,-4.2892,-4.2896,-4.2745,-4.275,-4.2754,-4.2756,0,0,0,0,0,0,0,-4.251,-4.2527,-4.27,-4.2633,-4.263,-4.2602,-4.2609,-4.271,-4.2699,-4.2633,-4.2625,-4.2636,-4.2698,-4.2728,-4.2737,-4.2897,-4.2745,-4.2752,-4.2758,-4.2761,-4.3198,-4.3204,0,0,0,0,0,0,-4.2509,-4.2522,-4.2698,-4.2703,-4.2555,-4.2611,-4.2619,-4.2666,-4.2697,-4.2696,-4.2641,-4.263,-4.2716,-4.2727,-4.2739,-4.2942,-4.2754,-4.2762,-4.2767,-4.3191,-4.3199,-4.3206,0,0,0,0,0,0,-4.2504,-4.2525,-4.2695,-4.261,-4.263,-4.2622,-4.2676,-4.2671,-4.2701,-4.2703,-4.27,-4.2674,-4.2712,-4.2727,-4.2852,-4.2943,-4.2766,-4.2774,-4.3184,-4.3194,-4.3202,-4.3348,0,0,0,0,0,0,-4.2497,-4.2524,-4.2589,-4.2613,-4.2635,-4.2807,-4.2681,-4.2677,-4.2716,-4.2703,-4.2733,-4.2733,-4.2708,-4.284,-4.2861,-4.2952,-4.278,-4.3175,-4.3188,-4.3199,-4.3335,-4.3361,-4.3384,0,0,0,0,0,-4.2489,-4.2627,-4.2593,-4.2615,-4.2716,-4.2813,-4.2825,-4.2794,-4.2724,-4.2789,-4.279,-4.2732,-4.293,-4.2854,-4.2876,-4.2971,-4.317,-4.3184,-4.3198,-4.3324,-4.3356,-4.3383,0,0,0,0,0,0,-4.2615,-4.2629,-4.2592,-4.2741,-4.2777,-4.2794,-4.2875,-4.2829,-4.2885,-4.2871,-4.283,-4.2838,-4.2972,-4.2984,-4.2899,-4.3138,-4.3038,-4.3058,-4.3126,-4.3156,-4.318,-4.3175,-4.2787,0,0,0,0,0,-4.266,-4.2737,-4.2746,-4.2877,-4.2897,-4.2883,-4.2924,-4.2897,-4.2932,-4.2946,-4.2957,-4.2993,-4.3063,-4.311,-4.3175,-4.3336,-4.3341,-4.3412,-4.3437,-4.3457,-4.3474,-4.3561,-4.3593,-4.3253,-4.3253,-4.3253,0,0,-4.2754,-4.2771,-4.2823,-4.2903,-4.2927,-4.3008,-4.2896,-4.2987,-4.3047,-4.296,-4.3079,-4.3088,-4.3126,-4.327,-4.3334,-4.3284,-4.3569,-4.3475,-4.3491,-4.3498,-4.3579,-4.3611,-4.364,-4.3263,-4.3261,-4.326,0,0,-4.2966,-4.2988,-4.3099,-4.3126,-4.3164,-4.3154,-4.3181,-4.3205,-4.3208,-4.3327,-4.3263,-4.3334,-4.3456,-4.3485,-4.3516,-4.3741,-4.3689,-4.3763,-4.3891,-4.3976,-4.4002,-4.4026,-4.4107,-4.4136,-4.378,-4.3781,-4.3781,0,-4.3079,-4.3198,-4.3163,-4.3258,-4.3295,-4.322,-4.3333,-4.3361,-4.3418,-4.3446,-4.3389,-4.354,-4.356,-4.371,-4.3765,-4.3793,-4.3822,-4.3759,-4.4001,-4.4025,-4.4046,-4.4123,-4.4153,-4.3789,-4.3788,-4.3788,-4.3787,0,-4.3335,-4.3419,-4.3504,-4.3562,-4.3609,-4.3713,-4.3693,-4.3744,-4.3714,-4.371,-4.3832,-4.3853,-4.3921,-4.3955,-4.3925,-4.4101,-4.4069,-4.4008,-4.3906,-4.4088,-4.4159,-4.4188,-4.3802,-4.3799,-4.3796,-4.3794,0,0,-4.3629,-4.3665,-4.3697,-4.3723,-4.3759,-4.3824,-4.3924,-4.399,-4.4036,-4.4078,-4.4161,-4.4266,-4.421,-4.4245,-4.4218,-4.4293,-4.447,-4.4222,-4.4222,-4.4268,-4.4666,-4.4712,-4.4747,-4.4436,-4.4442,-4.4446,-4.4663,0,-4.3841,-4.4015,-4.3986,-4.4154,-4.4232,-4.4162,-4.425,-4.4282,-4.4281,-4.4347,-4.4345,-4.4421,-4.434,-4.4361,-4.4432,-4.4434,-4.455,-4.4418,-4.4514,-4.4518,-4.4507,-4.4784,-4.4833,-4.5037,-4.4691,-4.4695,-4.4699,0,-4.4113,-4.4165,-4.4342,-4.4366,-4.4398,-4.4477,-4.4536,-4.4599,-4.4634,-4.4628,-4.4668,-4.4628,-4.4729,-4.4626,-4.4764,-4.4675,-4.4712,-4.4719,-4.4726,-4.4734,-4.462,-4.48,-4.5101,-4.5132,-4.4742,-4.4738,-4.4735,0,-4.431,-4.4425,-4.4545,-4.4569,-4.4601,-4.4658,-4.4674,-4.4703,-4.4745,-4.4796,-4.4823,-4.4886,-4.492,-4.497,-4.4948,-4.4875,-4.509,-4.4985,-4.5089,-4.509,-4.5137,-4.5135,-4.545,-4.5162,-4.5161,-4.516,-4.516,0,-4.4551,-4.4662,-4.4634,-4.4709,-4.4831,-4.4796,-4.4918,-4.4925,-4.4952,-4.5027,-4.497,-4.5041,-4.5007,-4.5076,-4.506,-4.5177,-4.5193,-4.5191,-4.5186,-4.5197,-4.5197,-4.5221,-4.5206,-4.5169,-4.5167,-4.5165,-4.5164,0,-4.4792,-4.4778,-4.4905,-4.4925,-4.4932,-4.5022,-4.5038,-4.5108,-4.5103,-4.5198,-4.5218,-4.5211,-4.5289,-4.5272,-4.5357,-4.5346,-4.5494,-4.547,-4.5482,-4.5477,-4.5581,-4.5572,-4.5923,-4.5967,-4.565,-4.5653,-4.5656,0,-4.4947,-4.5031,-4.5059,-4.5105,-4.5126,-4.52,-4.5243,-4.5212,-4.5259,-4.5305,-4.5369,-4.5443,-4.5499,-4.5628,-4.563,-4.5696,-4.5673,-4.5792,-4.5683,-4.5692,-4.5676,-4.5671,-4.568,-4.5814,-4.5817,-4.582,-4.5823,0,-4.5223,-4.5212,-4.5276,-4.5338,-4.539,-4.5437,-4.5479,-4.552,-4.5492,-4.5548,-4.5627,-4.5671,-4.5759,-4.5833,-4.5893,-4.5909,-4.5863,-4.5857,-4.5884,-4.5897,-4.59,-4.59,-4.5542,-4.5849,-4.5846,-4.5844,-4.5843,-4.5842,-4.5426,-4.5497,-4.5529,-4.5602,-4.563,-4.567,-4.5737,-4.574,-4.5806,-4.5875,-4.5853,-4.5943,-4.5976,-4.6053,-4.6077,-4.6147,-4.6103,-4.6143,-4.6153,-4.6163,-4.6176,-4.5889,-4.6158,-4.6157,-4.6157,-4.6156,-4.6155,0,-4.57,-4.5716,-4.5784,-4.5844,-4.5902,-4.5852,-4.5896,-4.5947,-4.6028,-4.6062,-4.612,-4.6211,-4.6283,-4.6291,-4.6358,-4.6413,-4.6393,-4.6432,-4.6428,-4.6432,-4.6212,-4.6182,-4.6447,-4.6447,-4.6447,-4.6447,-4.6447,-4.6447,-4.5849,-4.5967,-4.596,-4.6091,-4.6107,-4.6196,-4.6225,-4.6262,-4.629,-4.6395,-4.6454,-4.6458,-4.6483,-4.6551,-4.6615,-4.6615,-4.6643,-4.669,-4.6683,-4.6477,-4.6448,-4.642,-4.6391,-4.6697,-4.6697,-4.6897,-4.6899,-4.69]},{"header":{"parameterUnit":"m.s-1","parameterCategory":1,"la1":30.2991,"la2":30.254,"lo1":-89.0895,"lo2":-89.0444,"dy":0.0017,"dx":0.0017,"nx":28,"ny":28,"refTime":"2024-10-04T09:00:00:Z","depth":0,"parameterNumber":3,"parameterNumberName":"V-component_of_WINDS"},"data":[0,0,0,0,0,0,0,0,0,0,0,0,0,0,0,0,0,0,0,0,0,0,0,0,0,0,0,0,0,0,0,0,0,0,0,0,0,0,0,0,0,0,0,0,0,0,0,0,0,0,0,0,0,0,0,0,0,0,-1.8895,-1.8895,0,-1.8898,-1.8898,-1.8898,-1.8875,-1.8874,-1.8873,-1.8873,-1.8874,-1.8875,-1.8876,0,0,0,0,0,0,0,0,0,0,0,0,0,-1.8867,-1.8868,-1.8895,-1.8895,-1.8895,-1.8898,-1.8898,-1.8898,-1.8875,-1.8874,-1.8873,-1.8872,-1.8874,-1.8875,-1.8876,0,0,0,0,0,0,0,0,0,0,0,0,0,-1.8876,-1.8868,-1.8895,-1.8884,-1.8883,-1.8898,-1.8898,-1.8898,-1.8875,-1.8874,-1.8873,-1.8872,-1.8874,-1.8875,-1.8876,-1.8901,0,0,-1.8879,-1.8879,0,0,0,0,0,0,0,0,-1.8875,-1.8877,-1.8886,-1.8885,-1.8884,-1.8885,-1.8889,-1.8899,-1.8875,-1.8878,-1.8873,-1.8872,-1.8879,-1.8879,-1.8882,-1.8901,-1.8901,-1.8879,-1.888,-1.888,-1.888,0,0,0,0,0,0,0,-1.8875,-1.8877,-1.8896,-1.8886,-1.8885,-1.8878,-1.8878,-1.889,-1.8884,-1.8878,-1.8876,-1.8877,-1.8878,-1.8881,-1.8882,-1.8901,-1.8879,-1.888,-1.888,-1.8881,-1.8939,-1.894,0,0,0,0,0,0,-1.8876,-1.8876,-1.8896,-1.8896,-1.8877,-1.8879,-1.8879,-1.8885,-1.8883,-1.8882,-1.8877,-1.8876,-1.888,-1.8881,-1.8882,-1.8909,-1.888,-1.8881,-1.8881,-1.8938,-1.8939,-1.894,0,0,0,0,0,0,-1.8875,-1.8878,-1.8896,-1.8886,-1.8888,-1.8881,-1.8888,-1.8886,-1.8889,-1.8883,-1.8882,-1.8882,-1.8879,-1.888,-1.8896,-1.8909,-1.8881,-1.8882,-1.8937,-1.8938,-1.8939,-1.8966,0,0,0,0,0,0,-1.8875,-1.8878,-1.8888,-1.8886,-1.8888,-1.8911,-1.8889,-1.8887,-1.8891,-1.8888,-1.8887,-1.8886,-1.8878,-1.8895,-1.8897,-1.891,-1.8883,-1.8935,-1.8937,-1.8939,-1.8964,-1.8968,-1.8972,0,0,0,0,0,-1.8874,-1.8896,-1.8889,-1.8891,-1.8901,-1.8912,-1.8913,-1.8904,-1.8892,-1.8902,-1.8898,-1.8886,-1.8907,-1.8896,-1.8899,-1.8912,-1.8934,-1.8937,-1.8939,-1.8962,-1.8967,-1.8972,0,0,0,0,0,0,-1.89,-1.8896,-1.8888,-1.891,-1.8912,-1.8908,-1.892,-1.891,-1.8915,-1.8913,-1.8901,-1.8901,-1.8918,-1.8917,-1.8905,-1.8935,-1.8919,-1.8921,-1.8935,-1.894,-1.8944,-1.8944,-1.8884,0,0,0,0,0,-1.8909,-1.8919,-1.8914,-1.8934,-1.8935,-1.8927,-1.8932,-1.8925,-1.8926,-1.8926,-1.8923,-1.8924,-1.8931,-1.8936,-1.8942,-1.8963,-1.8962,-1.8974,-1.8977,-1.8981,-1.8983,-1.8992,-1.8997,-1.8947,-1.8947,-1.8947,0,0,-1.8926,-1.8925,-1.8932,-1.8939,-1.8939,-1.8948,-1.8928,-1.894,-1.8946,-1.8928,-1.8942,-1.894,-1.894,-1.8958,-1.8966,-1.8958,-1.8996,-1.8984,-1.8986,-1.8987,-1.8995,-1.9,-1.9004,-1.8948,-1.8948,-1.8948,0,0,-1.8963,-1.8963,-1.8979,-1.8979,-1.898,-1.8974,-1.8978,-1.8975,-1.8973,-1.8987,-1.8973,-1.898,-1.8992,-1.8992,-1.8994,-1.9027,-1.9016,-1.903,-1.905,-1.9059,-1.9063,-1.9067,-1.9077,-1.9081,-1.9032,-1.9032,-1.9032,0,-1.8984,-1.8998,-1.8988,-1.9,-1.9002,-1.8986,-1.9001,-1.9001,-1.9004,-1.9005,-1.8996,-1.9009,-1.9009,-1.9025,-1.9033,-1.9036,-1.9038,-1.903,-1.9064,-1.9067,-1.907,-1.908,-1.9084,-1.9034,-1.9034,-1.9033,-1.9033,0,-1.9024,-1.9034,-1.9046,-1.9048,-1.9052,-1.9066,-1.9056,-1.9061,-1.9053,-1.9048,-1.9061,-1.9059,-1.9064,-1.9067,-1.906,-1.9082,-1.9077,-1.9066,-1.9049,-1.9076,-1.9085,-1.9089,-1.9036,-1.9035,-1.9035,-1.9035,0,0,-1.9079,-1.9073,-1.9078,-1.9077,-1.9075,-1.9082,-1.9094,-1.9098,-1.9101,-1.9103,-1.9111,-1.9121,-1.911,-1.9112,-1.9104,-1.9112,-1.9136,-1.9099,-1.9099,-1.9105,-1.9159,-1.9167,-1.9171,-1.9129,-1.913,-1.913,-1.9159,0,-1.9113,-1.9133,-1.9122,-1.9143,-1.9151,-1.9134,-1.9143,-1.9143,-1.9138,-1.9143,-1.9137,-1.9144,-1.913,-1.913,-1.9138,-1.9132,-1.9147,-1.913,-1.9135,-1.9136,-1.9135,-1.9176,-1.9185,-1.9212,-1.9162,-1.9163,-1.9163,0,-1.9156,-1.9158,-1.9179,-1.9174,-1.9177,-1.9186,-1.9187,-1.9193,-1.919,-1.9186,-1.9187,-1.9176,-1.9186,-1.9169,-1.9181,-1.917,-1.9171,-1.9169,-1.9169,-1.9169,-1.9151,-1.9176,-1.9221,-1.9224,-1.9169,-1.9168,-1.9168,0,-1.9191,-1.92,-1.9213,-1.9213,-1.9208,-1.9214,-1.9212,-1.9209,-1.9211,-1.9212,-1.9213,-1.9215,-1.9216,-1.9218,-1.9208,-1.9197,-1.922,-1.9203,-1.9216,-1.9216,-1.9221,-1.9221,-1.9266,-1.9224,-1.9224,-1.9224,-1.9224,0,-1.923,-1.9244,-1.9229,-1.9237,-1.925,-1.9238,-1.9251,-1.9247,-1.9244,-1.925,-1.9236,-1.9242,-1.9228,-1.9232,-1.9224,-1.9234,-1.9235,-1.9231,-1.9229,-1.9232,-1.9232,-1.9233,-1.923,-1.9225,-1.9225,-1.9224,-1.9224,0,-1.9272,-1.9263,-1.9276,-1.9269,-1.9267,-1.9277,-1.9271,-1.9277,-1.9271,-1.9278,-1.9279,-1.9269,-1.9273,-1.9263,-1.9265,-1.926,-1.9274,-1.9269,-1.9274,-1.9272,-1.9285,-1.9284,-1.9331,-1.9336,-1.9292,-1.9292,-1.9293,0,-1.9298,-1.9307,-1.93,-1.9303,-1.9301,-1.9307,-1.9308,-1.9296,-1.9298,-1.9295,-1.9301,-1.9304,-1.9305,-1.9311,-1.9304,-1.9305,-1.9299,-1.9316,-1.9299,-1.9302,-1.9298,-1.9297,-1.9297,-1.9319,-1.9319,-1.932,-1.932,0,-1.9342,-1.9337,-1.934,-1.9341,-1.9343,-1.9343,-1.9342,-1.9345,-1.9331,-1.9334,-1.9338,-1.9339,-1.934,-1.9342,-1.9342,-1.9338,-1.9327,-1.9325,-1.9328,-1.9331,-1.9333,-1.9331,-1.9282,-1.9324,-1.9324,-1.9324,-1.9323,-1.9323,-1.9376,-1.9382,-1.9378,-1.9381,-1.9379,-1.9378,-1.9383,-1.9376,-1.9379,-1.9379,-1.9371,-1.9376,-1.9371,-1.9369,-1.9367,-1.9369,-1.9362,-1.9366,-1.9367,-1.9368,-1.9369,-1.9333,-1.9369,-1.9369,-1.9369,-1.9369,-1.9369,0,-1.9419,-1.9414,-1.9417,-1.9416,-1.9418,-1.9406,-1.9404,-1.9406,-1.941,-1.9407,-1.9408,-1.9411,-1.9412,-1.9404,-1.9404,-1.9408,-1.9402,-1.9408,-1.9407,-1.9406,-1.9377,-1.9374,-1.9412,-1.9412,-1.9412,-1.9412,-1.9412,-1.9412,-1.9441,-1.9451,-1.9444,-1.9453,-1.9448,-1.9452,-1.9452,-1.945,-1.9447,-1.9451,-1.9451,-1.9446,-1.944,-1.9439,-1.9439,-1.9437,-1.9437,-1.9444,-1.944,-1.9413,-1.9409,-1.9404,-1.9401,-1.9445,-1.9445,-1.9469,-1.9469,-1.9469]}]]